Temperature
23 23 23 23 21 19 22 23 23 24 24 24 24 23 22 21 22 21 21 21 21 21 20 20 20 20 19 19 19 19 19 19 19 19 19 19 19 19 19 19 19 19 19 19 19 19 19 19 19
23 23 23 23 19 21 22 23 24 24 24 24 24 23 22 21 21 21 20 20 20 21 20 20 20 20 19 19 19 19 19 19 19 18 19 19 19 19 19 19 19 19 19 19 19 19 19 19 19
23 23 23 19 21 21 23 24 24 24 24 24 23 22 21 21 22 21 21 20 20 20 20 20 20 19 19 19 19 19 19 19 18 18 18 19 19 19 19 19 19 19 19 19 19 18 18 18 18
23 24 23 20 22 22 23 23 24 24 25 24 23 21 21 21 21 21 20 20 20 20 20 20 19 19 19 19 19 19 19 18 18 18 18 18 18 19 19 19 19 19 18 18 18 18 18 18 18
24 24 21 21 22 22 22 23 24 24 24 24 22 21 21 21 21 21 20 20 20 20 20 19 19 19 19 19 19 19 18 18 18 18 18 18 18 18 18 19 19 18 18 18 18 18 18 18 18
24 20 20 21 22 22 23 25 25 24 23 23 22 21 20 21 21 20 20 20 20 20 20 19 19 19 19 19 19 19 18 18 18 18 18 18 18 18 18 18 18 18 18 18 18 18 17 17 18
22 19 21 21 21 22 24 25 25 23 23 23 23 20 20 21 21 20 20 20 20 20 20 19 19 19 19 19 19 18 18 18 18 18 18 18 18 18 18 18 18 18 18 18 17 17 17 17 17
24 19 21 21 22 22 24 25 26 25 24 24 24 21 20 21 20 20 19 19 19 19 20 20 19 19 19 19 19 18 18 18 18 18 18 18 18 18 18 18 18 18 18 18 18 17 17 17 17
23 19 20 21 22 22 23 24 26 26 24 23 24 24 23 22 20 20 19 19 19 19 20 20 20 19 19 19 19 18 18 18 18 18 18 18 18 18 18 18 18 18 18 18 17 17 17 17 17
22 20 22 22 22 22 23 24 25 25 23 23 23 24 23 21 21 20 20 20 20 20 20 20 20 19 19 19 19 18 18 18 18 18 18 18 18 18 18 18 18 18 18 17 17 17 17 17 17
22 21 22 22 23 23 23 24 25 24 23 24 24 24 23 22 21 20 20 21 21 20 20 20 20 19 19 19 19 19 18 18 18 18 18 18 18 18 18 18 18 18 17 17 17 17 17 17 17
22 22 22 23 24 23 24 24 25 25 25 26 26 25 24 22 22 21 21 21 21 20 20 20 20 19 19 19 19 19 19 18 18 18 18 18 18 18 18 18 18 18 17 17 16 17 16 16 16
22 23 23 24 24 24 24 24 24 24 25 26 25 25 25 24 23 23 22 22 21 21 20 20 20 20 19 19 19 19 19 19 19 18 18 18 18 18 18 18 18 17 17 16 16 17 17 16 16
22 23 23 23 23 23 23 23 23 23 24 25 24 24 24 24 24 23 22 22 22 21 21 20 20 20 20 19 19 19 19 19 19 19 18 18 17 17 18 18 18 17 17 16 17 17 17 16 16
22 22 22 21 21 22 22 22 21 21 23 23 23 23 23 24 24 23 23 23 23 22 22 21 20 20 20 20 19 19 19 19 19 18 18 18 17 17 17 17 17 17 17 16 17 17 17 16 16
21 21 21 21 21 21 22 21 21 22 22 22 22 22 22 22 23 23 23 23 23 23 22 22 21 20 20 20 20 19 19 19 18 18 18 18 17 17 17 17 17 17 17 17 17 17 16 16 16
19 19 20 20 21 21 21 21 21 21 21 21 22 22 21 21 22 23 23 23 23 23 23 22 22 21 21 20 20 19 19 19 19 18 18 18 17 17 17 17 17 17 17 17 17 17 16 16 16
20 20 20 20 20 20 20 19 19 20 20 20 20 21 21 21 22 22 22 23 23 23 23 22 22 22 21 20 20 19 19 19 18 18 18 18 17 17 17 17 17 17 17 17 17 17 16 16 16
20 19 19 19 20 20 19 18 18 19 18 18 18 18 19 20 22 22 22 23 23 23 22 22 22 22 21 21 20 20 19 19 19 18 18 18 18 17 17 17 17 17 17 17 17 16 16 16 16
19 19 18 19 19 19 18 17 17 17 16 16 16 16 17 18 20 22 22 23 23 23 23 23 22 22 22 21 21 20 20 19 19 18 18 18 17 17 17 17 17 17 17 17 17 17 16 16 16
19 18 18 18 18 18 17 17 16 16 16 16 15 15 16 16 18 20 22 23 23 23 24 23 23 22 22 21 21 20 20 19 19 18 18 18 18 17 17 17 17 17 17 17 17 16 16 16 16
17 18 18 18 17 16 17 15 16 14 14 15 15 15 15 15 17 19 21 22 22 23 23 23 22 22 22 21 20 20 20 20 19 19 18 18 17 17 17 17 17 17 17 16 16 16 16 15 15
17 17 16 16 16 15 15 15 14 13 14 14 14 14 14 14 16 17 19 20 21 21 21 21 21 21 21 20 20 19 19 19 19 18 18 17 17 17 17 17 16 16 16 16 16 16 16 15 15
17 16 15 13 14 15 15 14 14 14 14 14 14 14 14 14 15 16 17 18 19 19 20 19 19 19 19 18 18 19 19 19 18 18 17 17 17 17 17 16 16 16 16 16 16 15 15 15 15
14 14 13 14 13 14 15 14 14 14 14 13 13 13 13 13 14 15 16 16 17 17 17 18 18 17 17 17 17 18 18 18 18 17 17 17 17 17 16 16 16 16 16 16 15 15 15 15 15
13 14 13 13 13 13 14 14 13 14 14 13 13 13 13 13 13 14 15 15 16 16 16 16 16 16 16 16 17 17 17 17 17 17 17 17 16 16 16 16 16 16 15 15 15 15 14 14 14
12 12 12 12 13 13 13 14 14 13 13 13 13 13 12 13 13 14 14 15 15 14 14 15 15 15 15 16 17 17 17 17 17 17 17 17 16 16 16 16 16 16 15 15 15 15 14 14 14
12 11 10 11 12 13 14 13 12 11 12 12 12 12 12 13 13 14 14 14 14 14 14 14 14 15 15 16 17 17 17 17 17 17 17 16 16 16 16 16 16 15 15 14 14 14 14 14 14
11 11 10 10 11 12 13 12 12 11 11 11 12 12 12 12 13 14 14 14 14 14 14 14 15 15 16 16 17 17 17 17 17 17 17 17 16 16 16 16 15 15 15 14 14 14 14 14 14
11 10 10 10 11 11 12 11 11 11 11 11 11 11 12 12 13 14 14 14 14 14 15 15 15 16 16 17 17 17 17 17 17 17 17 17 16 16 16 16 15 15 15 14 14 14 14 14 14
Wind_Speed
7 2 3 4 6 6 3 2 2 2 3 3 3 7 7 5 2 2 2 9 11 11 11 14 14 14 13 12 12 13 13 14 14 15 14 13 12 11 11 10 10 9 8 8 8 8 9 9 8
3 0 3 5 6 4 3 3 2 2 5 5 5 5 5 4 2 5 5 7 12 13 11 13 15 14 13 12 12 12 12 13 13 14 14 12 11 11 10 10 9 9 9 8 8 7 8 8 8
2 2 4 5 5 4 1 2 2 2 4 2 4 5 4 4 4 6 6 11 12 10 11 13 15 14 13 12 12 12 12 12 13 13 12 12 11 10 10 9 9 9 8 8 8 7 8 8 8
3 4 5 6 4 1 3 3 2 5 2 4 4 5 3 2 7 6 10 12 12 9 10 13 15 14 13 12 12 12 12 12 12 12 12 11 10 9 9 8 8 8 8 8 8 8 8 8 8
4 5 6 5 4 5 4 3 4 5 3 3 4 4 2 4 7 12 13 12 12 9 9 11 14 13 13 12 12 12 12 12 11 11 11 11 10 9 8 8 8 7 7 7 7 8 9 9 9
5 5 5 2 6 7 5 2 3 4 4 4 5 4 2 3 8 11 12 10 10 10 8 10 14 13 12 12 12 12 12 11 11 11 11 11 10 9 8 7 7 6 5 5 5 7 9 9 9
4 5 4 1 4 6 4 2 4 5 5 5 6 5 2 3 7 9 9 8 8 7 7 7 10 12 13 12 12 12 12 11 11 11 11 11 10 9 8 7 5 5 4 4 4 6 8 9 8
5 5 3 1 1 4 5 4 2 6 5 4 5 8 6 7 8 8 7 7 8 7 7 6 8 10 10 11 12 13 12 12 11 11 11 11 10 9 8 6 5 4 4 3 4 5 7 8 7
4 5 2 3 3 4 4 3 1 3 6 4 4 6 6 12 11 9 5 4 6 8 6 7 6 7 8 9 11 12 12 12 11 10 11 10 8 7 7 6 5 4 3 3 3 5 7 8 8
4 4 6 5 5 4 4 2 1 5 4 2 3 4 9 13 13 11 8 8 9 9 8 7 7 6 7 8 9 9 10 10 10 9 9 8 8 7 6 6 6 4 3 2 3 5 8 7 7
3 5 4 4 5 3 3 3 1 8 5 8 9 11 13 13 13 13 12 10 10 9 9 9 8 6 6 5 7 7 8 9 9 9 9 9 7 6 5 3 2 2 3 5 6 7 5 4 4
1 3 3 4 2 2 3 4 2 4 6 7 11 17 17 17 17 16 15 11 9 8 9 9 9 7 7 6 5 6 6 6 6 9 10 9 5 4 4 3 2 3 4 3 4 4 3 3 4
1 2 2 4 5 4 4 5 3 3 8 1 11 14 18 18 17 15 12 10 9 9 10 9 10 8 7 6 5 5 5 7 8 9 10 10 5 3 4 3 4 4 3 2 1 2 2 5 6
2 2 2 3 4 3 4 5 1 5 8 4 12 15 16 17 17 13 12 12 12 12 12 10 11 9 8 7 6 6 6 8 9 9 10 11 8 5 4 3 4 4 5 4 2 3 3 3 5
3 1 2 4 4 3 4 4 3 5 6 2 8 11 12 13 13 14 14 14 14 13 13 12 12 10 10 9 8 5 7 8 7 8 11 12 10 8 5 4 4 4 6 5 3 4 4 3 3
3 3 2 3 4 5 3 4 1 3 6 4 4 6 8 10 12 12 11 12 11 10 12 14 13 12 11 10 8 5 6 7 6 9 10 12 12 11 7 5 5 5 6 5 4 4 3 3 3
5 2 2 5 1 3 3 5 5 3 4 4 5 5 7 8 10 11 11 12 11 11 12 14 13 13 13 10 8 5 5 6 7 9 9 11 13 13 8 5 5 5 4 3 4 3 4 4 4
2 2 3 5 3 1 2 7 9 5 5 6 7 7 7 8 11 11 12 12 11 11 12 13 13 12 11 8 5 4 4 5 5 6 8 11 11 12 9 5 5 5 4 4 4 4 3 3 4
4 4 6 6 3 1 4 7 9 7 8 9 9 9 10 11 10 10 13 14 13 12 13 14 14 12 10 7 6 5 5 5 4 5 7 9 9 10 8 4 5 5 5 5 5 4 4 3 3
2 4 6 6 2 1 4 7 5 7 10 10 11 12 12 13 12 10 10 13 17 17 16 15 15 13 13 10 6 4 3 3 3 3 4 8 8 8 7 6 6 6 5 5 6 4 4 3 4
3 4 5 5 3 3 3 6 4 6 8 13 14 12 13 14 14 12 10 12 15 17 17 15 14 12 11 9 6 4 4 3 3 3 3 4 6 7 6 6 5 6 6 6 7 6 6 4 2
5 5 4 3 1 3 1 5 4 7 9 15 18 17 17 18 15 12 9 8 11 13 12 11 11 9 7 8 8 6 6 5 5 4 4 4 5 6 6 6 6 6 5 6 7 7 5 5 4
4 5 3 1 2 1 1 3 6 6 10 15 17 18 18 18 16 12 9 4 1 3 6 8 9 8 6 4 4 4 3 3 3 3 5 4 4 4 5 5 5 6 5 6 6 7 7 6 6
5 5 4 5 3 2 4 4 3 5 10 15 16 17 18 18 16 13 11 9 8 9 10 11 12 11 8 4 1 3 5 5 5 4 4 3 3 3 4 4 4 5 4 5 6 6 8 8 7
8 5 4 4 1 5 1 4 2 7 10 12 15 16 16 15 14 13 11 10 9 10 10 12 13 12 7 2 2 3 5 6 6 5 5 4 3 2 4 4 4 3 4 4 4 5 6 7 8
6 2 2 4 4 3 2 3 3 6 9 10 12 14 15 14 12 12 10 8 8 9 9 11 14 9 3 2 3 3 4 4 3 4 4 4 3 3 4 4 4 3 3 3 4 4 5 5 8
7 5 2 2 2 2 2 2 2 13 16 17 17 17 17 15 13 11 8 8 7 8 9 10 10 4 2 4 4 3 4 4 4 3 3 3 3 3 4 4 4 3 2 2 3 2 4 4 6
3 3 4 1 2 3 0 3 7 16 19 19 18 18 17 15 13 11 7 7 8 8 7 7 4 2 5 5 4 3 3 4 4 4 4 4 4 4 5 4 4 3 2 2 2 2 2 3 3
8 6 4 3 1 1 1 2 6 11 14 15 16 16 16 14 11 8 5 6 8 7 5 3 3 5 5 4 3 3 2 3 3 3 3 4 4 5 5 5 5 4 3 3 2 1 1 2 2
4 5 3 2 2 1 1 1 6 11 12 13 15 16 16 13 9 5 4 4 3 1 3 5 5 4 4 3 3 2 2 2 3 2 3 4 4 5 5 6 5 5 5 4 4 3 2 2 1
Wind_Direction
327 15 104 61 52 51 44 333 272 307 50 48 76 91 100 98 140 169 114 139 133 146 163 156 152 148 147 146 142 139 136 135 133 131 129 125 123 120 118 115 112 109 106 106 110 111 110 106 104
315 198 65 58 78 67 328 311 271 230 131 138 85 81 84 79 93 117 132 147 143 150 158 156 157 153 151 151 148 144 141 139 137 136 134 131 129 126 122 118 114 109 104 102 103 108 109 107 104
304 44 76 68 86 140 271 293 254 84 127 108 76 60 88 126 139 153 157 143 143 149 153 161 161 158 156 155 150 148 147 145 141 139 137 135 132 128 126 123 119 112 105 99 94 95 99 99 98
71 46 55 66 50 254 258 282 192 129 94 59 95 74 63 109 154 152 139 143 147 149 152 167 165 163 161 159 155 152 148 143 142 140 137 134 131 130 128 126 125 118 109 100 91 85 85 82 75
61 71 59 47 347 305 277 259 182 154 127 85 102 101 53 15 115 130 141 149 151 148 154 172 171 170 168 165 161 156 152 149 147 145 142 139 137 134 132 131 130 125 116 103 87 78 73 66 57
52 62 76 34 321 313 300 253 152 134 124 122 115 105 60 109 124 141 147 151 154 155 158 174 177 176 174 171 167 165 160 158 156 152 149 147 145 142 139 137 132 130 125 109 83 68 63 57 53
94 82 104 93 329 323 323 358 160 152 150 165 138 112 110 162 152 144 142 140 146 154 157 170 177 180 180 177 174 172 168 165 162 158 153 151 149 149 148 148 145 143 140 124 86 63 56 53 51
113 95 78 44 323 289 301 323 194 161 164 130 125 144 179 191 154 131 125 135 146 156 162 164 171 174 176 179 180 177 174 170 166 160 157 157 157 157 155 156 160 158 151 129 88 63 56 56 53
84 79 154 211 210 261 296 333 4 128 118 118 151 174 187 148 140 129 124 138 160 169 169 166 165 166 167 173 183 179 176 173 166 163 164 157 149 147 149 159 170 165 153 122 83 59 55 58 49
82 134 210 211 201 228 294 288 229 120 120 119 91 102 129 143 155 162 172 178 182 185 182 172 169 164 165 176 174 166 166 166 158 157 153 142 139 142 150 174 177 174 159 90 56 46 54 55 50
128 182 229 240 220 234 285 297 305 141 188 204 186 162 149 159 170 183 190 189 192 189 188 182 176 166 164 162 154 152 150 149 150 153 150 147 144 145 150 163 151 73 75 49 30 28 35 48 64
181 243 233 270 238 240 266 308 345 186 242 239 183 163 161 172 184 193 197 197 188 182 192 184 181 173 171 163 158 156 152 152 156 161 160 155 151 154 159 169 145 100 85 64 24 9 21 92 110
210 259 256 303 312 292 294 283 288 318 325 147 149 162 173 183 192 199 201 197 186 187 191 185 181 178 173 166 166 165 164 166 169 169 172 170 165 169 174 180 172 154 142 134 52 38 88 118 118
260 269 317 349 350 354 312 290 359 343 336 142 162 180 187 192 195 197 200 200 197 194 192 185 184 181 175 176 177 175 172 171 172 177 182 183 182 180 177 184 187 179 170 168 142 105 111 114 120
298 313 33 19 5 353 331 336 55 326 345 179 195 197 199 206 204 207 207 208 204 198 191 187 188 182 182 184 186 180 179 175 178 184 190 192 194 193 187 189 203 191 169 164 139 115 111 113 116
26 42 1 337 8 352 31 302 244 349 26 1 296 247 227 223 220 219 218 218 210 197 193 192 193 187 189 190 188 180 178 178 184 185 191 200 203 201 191 196 213 191 162 160 150 138 124 130 141
33 35 326 311 346 20 50 283 284 344 8 328 315 293 262 250 243 232 222 221 215 202 196 194 192 188 191 189 187 185 176 183 185 185 192 203 207 205 197 202 212 187 160 166 171 152 147 160 165
242 236 257 274 290 6 297 274 296 335 327 310 307 303 290 269 252 243 231 221 219 208 199 197 195 188 180 172 167 175 187 194 185 187 196 201 204 204 200 203 204 185 168 178 179 164 151 152 156
204 220 253 261 272 279 275 285 305 343 2 347 336 323 308 289 275 258 238 223 214 210 201 197 195 185 172 168 174 181 197 194 195 192 192 193 196 197 195 199 191 182 194 193 182 161 158 145 140
224 253 266 283 342 267 298 297 330 22 23 7 353 340 327 312 301 285 257 230 214 210 205 199 197 188 184 186 175 165 154 169 177 170 177 187 187 188 191 186 187 187 189 184 180 167 158 158 158
279 240 258 269 347 38 345 320 4 4 15 10 4 350 340 328 312 301 279 240 223 215 206 199 193 188 186 167 141 113 100 97 130 172 186 186 184 183 184 183 182 186 182 187 185 179 170 170 180
298 301 273 263 287 292 30 293 321 342 353 4 358 353 346 340 330 317 301 263 227 217 201 184 170 165 161 148 163 171 175 182 192 176 169 164 176 182 185 181 180 184 186 191 190 183 174 164 177
307 336 358 331 193 282 309 232 306 351 357 352 348 347 346 344 343 344 341 322 262 155 127 127 124 113 108 120 169 187 170 157 138 137 155 158 164 174 178 180 182 189 193 196 190 181 183 181 178
342 358 25 42 92 247 239 193 329 14 350 340 341 344 346 348 351 0 13 28 48 69 87 98 99 90 80 74 202 202 171 156 153 159 160 154 150 159 172 177 184 193 196 198 195 192 191 195 191
19 28 353 335 336 240 248 149 64 5 357 342 337 340 346 352 355 1 19 27 41 59 75 89 88 77 61 29 253 211 184 172 173 171 168 156 155 167 180 170 176 188 199 199 191 193 202 199 201
339 17 214 256 242 282 359 135 109 15 353 346 343 342 347 354 359 3 19 32 45 55 66 83 85 81 57 274 247 213 178 168 168 167 163 170 177 177 172 168 169 177 183 187 187 197 207 204 210
358 348 290 256 272 265 288 89 92 359 356 352 350 348 347 347 353 359 14 34 51 62 67 79 91 101 249 242 228 197 179 170 170 166 166 172 172 167 162 155 144 142 153 168 175 205 216 208 210
34 332 9 357 251 243 235 64 360 348 344 343 344 344 341 341 349 353 16 42 51 54 54 63 79 232 248 232 213 194 186 181 173 167 173 175 170 159 150 145 145 149 154 157 167 202 213 207 211
357 7 358 315 278 237 139 70 12 342 336 336 339 341 341 339 341 346 29 56 55 42 17 339 267 249 243 220 200 181 178 174 166 166 168 166 166 164 163 165 169 175 177 174 168 191 189 197 218
22 350 314 311 348 4 81 73 5 347 345 348 348 347 346 349 354 6 62 81 67 11 286 271 263 246 232 203 178 157 155 147 145 151 158 165 174 181 182 176 179 184 184 183 185 197 184 181 209
Height
1492 1491 1491 1492 1495 1509 1510 1504 1500 1497 1496 1496 1496 1497 1499 1502 1505 1510 1506 1506 1509 1511 1514 1517 1519 1522 1524 1526 1527 1528 1529 1530 1531 1532 1534 1535 1536 1537 1538 1539 1540 1540 1540 1541 1541 1541 1542 1543 1544
1492 1492 1493 1493 1506 1521 1514 1502 1500 1497 1496 1497 1497 1498 1500 1502 1502 1503 1504 1507 1510 1512 1515 1517 1520 1522 1524 1526 1528 1529 1530 1531 1533 1534 1535 1536 1537 1538 1539 1540 1540 1541 1541 1542 1542 1542 1543 1544 1545
1492 1492 1494 1497 1510 1517 1511 1501 1498 1497 1498 1498 1499 1500 1501 1502 1503 1504 1506 1507 1510 1513 1515 1518 1520 1522 1524 1526 1528 1529 1531 1532 1533 1535 1536 1537 1538 1539 1540 1540 1541 1542 1542 1543 1543 1543 1544 1545 1546
1493 1494 1495 1503 1510 1507 1504 1499 1498 1497 1498 1498 1499 1501 1502 1504 1504 1506 1507 1508 1510 1513 1515 1518 1520 1523 1525 1526 1528 1529 1531 1532 1534 1535 1537 1538 1539 1540 1540 1541 1541 1542 1543 1544 1544 1544 1545 1545 1547
1493 1494 1501 1511 1510 1504 1499 1497 1497 1498 1498 1499 1500 1502 1503 1505 1505 1506 1507 1509 1511 1513 1516 1518 1521 1523 1524 1526 1528 1530 1531 1532 1534 1535 1537 1538 1539 1540 1541 1541 1542 1543 1543 1545 1545 1546 1546 1546 1547
1494 1496 1511 1517 1511 1503 1498 1496 1497 1497 1498 1499 1500 1502 1504 1505 1505 1507 1508 1510 1512 1514 1516 1518 1521 1523 1524 1526 1528 1529 1531 1533 1534 1535 1537 1538 1539 1540 1541 1542 1542 1543 1544 1545 1546 1547 1547 1548 1549
1496 1502 1511 1512 1511 1505 1498 1496 1496 1497 1498 1499 1499 1502 1504 1505 1507 1508 1509 1511 1512 1514 1516 1518 1520 1522 1524 1526 1528 1529 1531 1533 1534 1536 1537 1538 1539 1540 1541 1542 1543 1544 1545 1546 1547 1548 1548 1549 1550
1495 1502 1510 1511 1510 1506 1498 1496 1496 1496 1498 1499 1500 1501 1503 1505 1507 1509 1510 1511 1513 1514 1516 1518 1520 1522 1524 1526 1527 1529 1531 1533 1534 1536 1537 1538 1539 1540 1541 1542 1543 1545 1546 1547 1548 1548 1549 1550 1551
1496 1507 1514 1509 1508 1503 1497 1496 1496 1497 1498 1499 1500 1501 1502 1504 1506 1508 1510 1511 1512 1514 1516 1517 1519 1521 1523 1525 1527 1529 1531 1533 1534 1536 1537 1538 1539 1540 1541 1542 1544 1545 1546 1547 1548 1549 1550 1550 1552
1497 1509 1506 1500 1499 1499 1497 1496 1496 1497 1498 1499 1499 1500 1501 1503 1505 1507 1508 1509 1511 1512 1514 1516 1518 1520 1522 1524 1526 1528 1530 1532 1534 1536 1537 1538 1539 1540 1541 1542 1544 1545 1547 1548 1549 1549 1550 1552 1553
1498 1502 1498 1497 1496 1497 1496 1495 1495 1496 1498 1496 1495 1497 1499 1502 1504 1506 1507 1509 1510 1512 1513 1515 1516 1518 1520 1523 1525 1527 1529 1531 1533 1535 1537 1538 1539 1540 1541 1542 1543 1545 1547 1548 1550 1551 1552 1553 1554
1499 1498 1497 1496 1496 1496 1496 1495 1495 1495 1495 1494 1494 1495 1497 1499 1501 1503 1505 1507 1510 1512 1513 1515 1516 1517 1519 1522 1524 1526 1528 1530 1532 1534 1536 1538 1539 1540 1541 1542 1543 1545 1547 1549 1550 1551 1553 1554 1555
1499 1498 1497 1497 1496 1495 1495 1495 1495 1494 1493 1492 1493 1495 1496 1497 1499 1502 1504 1507 1509 1511 1513 1514 1516 1517 1518 1520 1522 1525 1527 1529 1531 1533 1535 1537 1539 1540 1541 1542 1543 1545 1547 1549 1551 1552 1553 1554 1555
1499 1498 1497 1497 1496 1495 1495 1494 1495 1494 1493 1492 1492 1493 1494 1496 1498 1500 1502 1504 1506 1509 1511 1513 1515 1516 1518 1519 1521 1523 1525 1528 1530 1532 1535 1537 1539 1540 1541 1542 1543 1545 1547 1549 1551 1552 1553 1554 1555
1498 1499 1499 1498 1497 1496 1496 1497 1497 1496 1493 1492 1492 1492 1494 1495 1497 1498 1500 1502 1504 1507 1509 1511 1514 1515 1517 1518 1520 1522 1524 1526 1528 1531 1533 1536 1538 1540 1541 1542 1543 1545 1547 1549 1550 1551 1553 1554 1554
1499 1503 1507 1501 1498 1497 1500 1505 1498 1496 1495 1494 1494 1494 1494 1495 1496 1497 1500 1501 1503 1505 1507 1509 1512 1513 1515 1517 1519 1521 1522 1524 1527 1529 1532 1534 1536 1538 1540 1542 1543 1545 1547 1548 1549 1550 1552 1553 1554
1508 1513 1511 1505 1499 1498 1500 1503 1496 1496 1495 1495 1494 1494 1494 1494 1495 1496 1497 1499 1502 1504 1506 1507 1509 1511 1513 1516 1518 1520 1522 1523 1525 1527 1530 1532 1534 1536 1538 1540 1542 1544 1545 1547 1548 1549 1550 1552 1553
1513 1512 1510 1508 1500 1500 1502 1502 1496 1496 1496 1495 1494 1493 1492 1492 1492 1493 1495 1496 1499 1501 1503 1505 1507 1509 1512 1514 1516 1518 1520 1522 1524 1525 1528 1530 1532 1534 1536 1537 1539 1541 1543 1544 1546 1548 1549 1550 1552
1505 1508 1511 1506 1499 1501 1503 1502 1498 1497 1496 1496 1495 1493 1491 1489 1488 1488 1489 1491 1494 1496 1499 1501 1503 1506 1508 1510 1513 1515 1517 1520 1522 1524 1526 1528 1529 1531 1533 1535 1536 1538 1540 1542 1543 1545 1546 1548 1549
1505 1509 1510 1504 1500 1501 1504 1504 1500 1500 1501 1500 1498 1494 1490 1486 1483 1482 1483 1484 1486 1489 1492 1495 1498 1502 1505 1507 1510 1513 1515 1518 1520 1522 1524 1525 1527 1528 1530 1531 1533 1535 1536 1538 1539 1540 1542 1544 1546
1507 1510 1509 1508 1504 1503 1506 1507 1505 1503 1502 1500 1498 1494 1490 1485 1481 1478 1477 1477 1479 1481 1485 1488 1492 1497 1501 1505 1508 1511 1513 1515 1518 1519 1521 1523 1525 1526 1527 1528 1530 1531 1533 1534 1535 1536 1538 1540 1542
1513 1506 1505 1506 1510 1515 1511 1521 1510 1508 1504 1500 1498 1494 1489 1483 1478 1475 1473 1472 1473 1475 1478 1482 1487 1492 1498 1502 1506 1508 1510 1512 1515 1517 1519 1521 1522 1524 1525 1526 1527 1528 1529 1530 1531 1531 1533 1535 1538
1509 1505 1506 1506 1510 1516 1515 1519 1517 1510 1508 1504 1501 1497 1491 1485 1478 1473 1470 1469 1469 1470 1474 1478 1482 1487 1494 1500 1504 1508 1509 1511 1513 1514 1516 1518 1519 1521 1522 1523 1524 1525 1525 1526 1526 1527 1529 1531 1533
1508 1508 1510 1514 1516 1523 1516 1521 1521 1516 1514 1508 1503 1498 1492 1485 1479 1474 1471 1469 1468 1468 1471 1474 1479 1484 1491 1497 1503 1506 1508 1509 1510 1512 1513 1515 1517 1518 1519 1520 1521 1521 1522 1522 1522 1523 1524 1526 1528
1515 1521 1528 1526 1529 1525 1513 1517 1521 1516 1514 1511 1506 1500 1494 1487 1481 1477 1473 1472 1471 1471 1471 1472 1476 1481 1488 1495 1502 1505 1507 1508 1509 1510 1511 1513 1514 1516 1517 1518 1518 1518 1518 1518 1518 1519 1520 1521 1522
1523 1524 1534 1536 1533 1526 1515 1518 1520 1516 1514 1511 1507 1501 1495 1489 1484 1479 1476 1474 1473 1473 1472 1472 1475 1482 1488 1495 1501 1504 1506 1507 1508 1509 1510 1511 1513 1514 1515 1515 1515 1515 1515 1515 1515 1515 1516 1517 1517
1527 1528 1527 1530 1526 1526 1522 1517 1515 1514 1512 1509 1505 1500 1495 1490 1485 1481 1478 1476 1475 1475 1474 1474 1477 1484 1490 1496 1500 1503 1505 1506 1507 1508 1510 1511 1512 1512 1513 1513 1513 1513 1513 1512 1512 1512 1512 1512 1513
1530 1530 1533 1532 1533 1531 1524 1524 1528 1522 1517 1512 1506 1502 1497 1491 1486 1483 1480 1478 1476 1477 1478 1478 1483 1489 1493 1497 1499 1502 1504 1506 1507 1508 1509 1510 1510 1510 1511 1510 1511 1511 1511 1511 1510 1510 1509 1509 1509
1535 1534 1535 1536 1532 1532 1531 1535 1530 1528 1522 1516 1510 1504 1498 1492 1488 1485 1483 1481 1481 1481 1484 1485 1489 1492 1494 1497 1499 1501 1503 1505 1506 1506 1507 1508 1508 1508 1508 1508 1509 1509 1509 1509 1509 1508 1507 1507 1507
1537 1538 1536 1537 1534 1532 1533 1539 1530 1527 1522 1517 1511 1504 1498 1493 1489 1487 1486 1485 1486 1487 1489 1490 1492 1493 1495 1496 1498 1500 1502 1503 1504 1504 1505 1506 1506 1506 1507 1507 1507 1507 1508 1508 1508 1507 1506 1505 1505